Regional Weather Roundup
Issued by NWS

Home | Current Version | Previous Version | Graphics & Text | Print | Product List | Glossary On
Versions: 1 2 3 4 5 6 7 8 9 10 11 12 13 14 15 16 17 18 19 20 21 22 23 24 25 26 27 28 29 30 31 32 33 34 35 36 37 38 39 40 41 42 43 44 45 46 47 48 49 50
000
ASUS45 KBOU 200707
RWRCO

WEATHER ROUNDUP FOR COLORADO
NATIONAL WEATHER SERVICE DENVER/BOULDER CO
100 AM MDT MON APR 20 2015

NOTE: "FAIR" INDICATES FEW OR NO CLOUDS BELOW 12000 FEET WITH NO
SIGNIFICANT WEATHER AND/OR OBSTRUCTIONS TO VISIBILITY.

COZ001>005-013-030-031-200800-
...NORTHWEST COLORADO...

CITY           SKY/WX    TMP DP  RH WIND       PRES   REMARKS
CRAIG          LGT RAIN  36  33  89 N10G18    30.04R
HAYDEN         CLOUDY    34  27  75 N12       30.03R WCI  25
MEEKER         CLOUDY    37  32  82 VRB5      30.01S
MOUNT WERNER   NOT AVBL
STEAMBOAT SPGS CLOUDY    32  24  73 W5        30.02R WCI  27
WALDEN         CLOUDY    28  23  80 E3        30.02S
$$

COZ006>008-011-200800-
...WEST CENTRAL VALLEYS...

CITY           SKY/WX    TMP DP  RH WIND       PRES   REMARKS
GRAND JUNCTION MOCLDY    45  41  86 SE5       30.00F
MONTROSE       LGT RAIN  44  40  85 W6        30.07R
EAGLE          MOCLDY    37  34  87 E5        30.04S
RIFLE          CLOUDY    46  36  68 S3        30.02S
DELTA          CLOUDY    47  42  84 CALM      30.05S
NUCLA          CLOUDY    43  36  75 E6        30.05F
$$

COZ017>023-064>068-200800-
...SOUTHWEST COLORADO...

CITY           SKY/WX    TMP DP  RH WIND       PRES   REMARKS
DURANGO        PTCLDY    43  21  41 CALM      30.02S
CORTEZ         CLEAR     33  27  78 S3        30.02R
PAGOSA SPRINGS CLOUDY    36  21  55 CALM      30.05S
TELLURIDE      CLOUDY    35  29  78 CALM      30.12S
WOLF CREEK PAS CLOUDY    25  14  63 SW16G26   30.16F WCI  12
$$

COZ009-010-012-014-032>034-037-058>063-200800-
...CENTRAL COLORADO...

CITY           SKY/WX    TMP DP  RH WIND       PRES   REMARKS
ASPEN          CLOUDY    35  27  72 SW5       30.03F WCI  31
BUENA VISTA    MOCLDY    29  22  76 E5        30.05F WCI  24
COPPER MTN     MOCLDY    23  18  80 SW10      30.07F WCI  12
BERTHOUD PASS  FAIR      12   5  73 W23G30    30.06S WCI  -7
COTTONWOOD PAS MOCLDY    32  21  64 CALM      30.07F
GUNNISON       MOCLDY    36  27  69 CALM      30.09R
KREMMLING      CLOUDY    30  27  86 SE3       30.04S
LEADVILLE      CLOUDY    24  21  88 CALM      30.05F
SALIDA         MOCLDY    36  30  80 SE7       30.12S
SUNLIGHT       LGT SNOW  30  28  93 CALM      30.12F
WILKERSON PASS MOCLDY    23  21  93 SW6       30.09F WCI  16
$$

COZ069>075-200800-
...SAN LUIS VALLEY/SANGRE DE CRISTO MOUNTAINS...

CITY           SKY/WX    TMP DP  RH WIND       PRES   REMARKS
ALAMOSA        CLOUDY    37  26  64 E6        30.03F
LA VETA PASS   CLOUDY    27  23  86 N6        30.09F FOG     WCI  20
SAGUACHE       PTCLDY    34  23  64 N7        30.05F WCI  28
$$

COZ035-036-038>040-200800-
...NORTHERN COLORADO FRONT RANGE...

CITY           SKY/WX    TMP DP  RH WIND       PRES   REMARKS
DENVER INTL AP PTCLDY    35  27  72 E5        30.04S WCI  31
DMNS CITY PARK   N/A     35  24  65 NE1       30.05R
AURORA         PTCLDY    37  23  56 CALM      30.04F
FRONT RANGE AP NOT AVBL
ERIE MUNI ARPT CLOUDY    37  31  77 CALM      30.05S
BOULDER MUN AP CLOUDY    37  28  70 CALM      30.05R
CENTENNIAL     PTCLDY    34  23  64 S5        30.03F WCI  30
BROOMFIELD     CLOUDY    39  27  60 N3        30.05S
FORT COLLINS   MOCLDY    37  28  70 N3        30.08R
LONGMONT       CLOUDY    39  33  78 NW3       30.08R
$$

COZ041-046-047-076>085-087-088-200800-
...PIKES PEAK/PALMER DIVIDE AND SOUTHERN FOOTHILLS...

CITY           SKY/WX    TMP DP  RH WIND       PRES   REMARKS
COLO. SPRINGS  FLURRIES  35  29  78 SE5       30.07F WCI  31
A. F. ACADEMY  MOCLDY    33  28  82 S6        30.04F WCI  28
ELLICOTT       LGT SNOW N/A N/A N/A SW8       30.06F
FALCON         CLOUDY    34  25  69 CALM      30.06F
FORT CARSON    CLOUDY    36  31  81 S5        30.06S
LIMON          MOCLDY    29  24  82 CALM      30.05R
MONUMENT HILL  PTCLDY    27  23  86 S6        30.03F WCI  20
TRINIDAD       CLOUDY    42  28  57 NE8       30.06F
$$

COZ042>045-048>051-090-091-200800-
...NORTHEAST COLORADO...

CITY           SKY/WX    TMP DP  RH WIND       PRES   REMARKS
GREELEY ARPT   MOCLDY    39  27  60 CALM      30.07R
AKRON          MOCLDY    30  23  75 W9        30.03S WCI  22
BURLINGTON     CLEAR     32  25  75 NW9       30.02S WCI  24
WRAY           CLEAR     32  26  78 NW10      30.01S WCI  24
STERLING       PTCLDY    32  27  80 NW6       30.02S WCI  26
HOLYOKE        CLEAR     34  27  75 W9        30.02R WCI  26
FORT MORGAN    CLOUDY    37  25  62 N3        30.05S
$$

COZ086-089-092>099-200800-
...SOUTHEAST COLORADO...

CITY           SKY/WX    TMP DP  RH WIND       PRES   REMARKS
PUEBLO         CLOUDY    45  31  58 NW3       30.07S
LA JUNTA       MOCLDY    45  29  53 CALM      30.07S
LAMAR          CLOUDY    43  36  76 CALM      30.04F
SPRINGFIELD      N/A     38  33  82 W3        30.06F
$$



USA.gov is the U.S. government's official web portal to all federal, state and local government web resources and services.